Location: Aranbee
(34.0885°N, 118.2342°W)
Time: 10:54:12
(UTC+00:00)

S-56A Canister/Altair - Pass Details

Date: 04 August 2021
Orbit: 632 x 2500 km, 38.9° (Epoch: 18 September)

Event Time Altitude Azimuth Distance (km) Brightness Sun altitude
Rises 06:12:29 0° 285° (WNW) 6,046 12.7 -32.8°
Reaches altitude 10° 06:18:52 10° 267° (W) 4,792 11.8 -33.5°
Maximum altitude 06:25:33 16° 236° (SW) 3,954 11.0 -34.1°
Enters shadow 06:27:53 15° 223° (SW) 3,873 10.9 -34.3°
